Newport News, VA

9:15 PM EST on December 15, 2019 (GMT -0500)
Newport News-Williamsburg International

Weather History for KPHF - September, 2019

Change the Weather History Date:

Wednesday, September 18, 2019

  Actual Average Record
Temperature  
Mean Temperature 68 °F -  
Max Temperature 75 °F 82 °F 98 °F (1952)
Min Temperature 62 °F 65 °F 50 °F (2001)
Cooling Degree Days 4    
Growing Degree Days 18 (Base 50)    
Moisture  
Dew Point 54 °F    
Average Humidity 62    
Maximum Humidity 75    
Minimum Humidity 50    
Precipitation  
Precipitation 0.00 in - - ()
Sea Level Pressure  
Sea Level Pressure 30.15 in    
Wind  
Wind Speed 8 mph ()    
Max Wind Speed 16 mph    
Max Gust Speed 24 mph    
Visibility 10.0 miles    
Events      
Averages and records for this station are not official NWS values.
T = Trace of Precipitation, MM = Missing Value Source: Averaged Metar Reports

Daily Weather History Graph

Daily Weather History Graph

Search for Another Location

Airport or City:

Astronomy

Sep. 18, 2019 Rise Set
Actual Time 6:50 AM EDT 7:09 PM EDT
Civil Twilight 6:24 AM EDT 7:35 PM EDT
Nautical Twilight 5:53 AM EDT 8:05 PM EDT
Astronomical Twilight 5:22 AM EDT 8:36 PM EDT
Moon 9:47 PM EDT (9/18) 10:46 AM EDT (9/18)
Length of Visible Light 13h 11m
Length of Day
12h 19m
Waning Gibbous, 82% of the Moon is Illuminated
Sep 18
Waning Gibbous
Sep 21
Last Quarter
Sep 28
New
Oct 5
First Quarter
Oct 13
Full

Hourly Weather History & Observations

Time (EDT) Temp. Dew Point Humidity Pressure Visibility Wind Dir Wind Speed Gust Speed Precip Events Conditions
12:54 AM 64.9 °F 55.0 °F 70% 30.09 in 10.0 mi NE 5.8 mph - N/A   Clear
1:54 AM 64.9 °F 55.0 °F 70% 30.09 in 10.0 mi NNE 6.9 mph - N/A   Clear
2:54 AM 63.0 °F 54.0 °F 72% 30.10 in 10.0 mi NNE 5.8 mph - N/A   Clear
3:54 AM 62.1 °F 54.0 °F 75% 30.09 in 10.0 mi NE 3.5 mph - N/A   Clear
4:54 AM 64.9 °F 54.0 °F 68% 30.10 in 10.0 mi NE 5.8 mph - N/A   Clear
5:54 AM 64.0 °F 54.0 °F 70% 30.11 in 10.0 mi NNE 4.6 mph - N/A   Clear
6:54 AM 66.9 °F 54.0 °F 63% 30.12 in 10.0 mi NE 9.2 mph - N/A   Clear
7:54 AM 68.0 °F 54.0 °F 61% 30.14 in 10.0 mi ENE 9.2 mph - N/A   Partly Cloudy
8:54 AM 70.0 °F 55.0 °F 59% 30.15 in 10.0 mi NE 10.4 mph - N/A   Scattered Clouds
9:54 AM 71.1 °F 55.0 °F 57% 30.16 in 10.0 mi NE 13.8 mph 19.6 mph N/A   Scattered Clouds
10:54 AM 71.1 °F 54.0 °F 55% 30.17 in 10.0 mi NE 12.7 mph 23.0 mph N/A   Mostly Cloudy
11:54 AM 73.9 °F 54.0 °F 50% 30.17 in 10.0 mi NE 10.4 mph 24.2 mph N/A   Scattered Clouds
12:54 PM 75.0 °F 55.0 °F 50% 30.17 in 10.0 mi NE 12.7 mph 20.7 mph N/A   Partly Cloudy
1:54 PM 73.9 °F 55.0 °F 52% 30.17 in 10.0 mi NE 12.7 mph 23.0 mph N/A   Scattered Clouds
2:54 PM 72.0 °F 55.9 °F 57% 30.16 in 10.0 mi NE 8.1 mph 17.3 mph N/A   Overcast
3:54 PM 71.1 °F 55.9 °F 59% 30.16 in 10.0 mi North 9.2 mph - N/A   Overcast
4:54 PM 71.1 °F 55.0 °F 57% 30.16 in 10.0 mi ENE 11.5 mph - N/A   Mostly Cloudy
6:54 PM 69.1 °F 55.0 °F 61% 30.18 in 10.0 mi ENE 11.5 mph - N/A   Scattered Clouds
8:54 PM 66.9 °F 52.0 °F 59% 30.21 in 10.0 mi ENE 11.5 mph 21.9 mph N/A   Partly Cloudy
9:54 PM 66.9 °F 54.0 °F 63% 30.22 in 10.0 mi ENE 16.1 mph 23.0 mph N/A   Partly Cloudy
10:54 PM 66.0 °F 53.1 °F 63% 30.22 in 10.0 mi ENE 10.4 mph - N/A   Partly Cloudy
11:54 PM 66.0 °F 53.1 °F 63% 30.23 in 10.0 mi ENE 12.7 mph - N/A   Mostly Cloudy